Lobo

Go HERE for most recent data if this page is not up to date.

Jump to table bottom
Date/Time Temp deg F RH % 24 Hr Snow (in) Snow Depth (in) H2O (in)
05/19 07:00 22.6 68 "NAN" 53.3 0.00
05/19 06:00 24.4 82 "NAN" 53.5 0.00
05/19 05:00 28.1 83 "NAN" 53.3 0.08
05/19 04:00 32.2 85 "NAN" 52.8 0.06
05/19 03:00 33.8 88 "NAN" 52.4 0.00
05/19 02:00 36.5 81 "NAN" 52.6 0.00
05/19 01:00 38.3 72 "NAN" 52.6 0.00
05/19 00:00 39.7 64 "NAN" 52.6 0.00
05/18 23:00 39.5 62 "NAN" 52.6 0.00
05/18 22:00 39.2 64 "NAN" 52.7 0.00
05/18 21:00 37.5 68 "NAN" 52.8 0.00
05/18 20:00 34.9 86 "NAN" 52.8 0.06
05/18 19:00 37.8 87 "NAN" 52.8 0.00
05/18 18:00 38.6 59 "NAN" 52.7 0.00
05/18 17:00 39.5 72 "NAN" 52.8 0.00
05/18 16:00 44.3 65 "NAN" 52.4 0.00
05/18 15:00 45.0 27 "NAN" 52.6 0.00
05/18 14:00 45.6 30 "NAN" 53.0 0.00
05/18 13:00 47.4 18 "NAN" 52.9 0.00
05/18 12:00 46.6 22 "NAN" 53.3 0.00
05/18 11:00 43.6 21 "NAN" 53.5 0.00
05/18 10:00 40.0 22 "NAN" 53.5 0.00
05/18 09:00 38.3 38 "NAN" 53.6 0.00
05/18 08:00 36.1 38 "NAN" 53.7 0.00
05/18 07:00 34.8 46 "NAN" 53.7 0.00
05/18 06:00 34.4 51 "NAN" 53.7 0.00
05/18 05:00 35.2 51 "NAN" 53.6 0.00
05/18 04:00 36.4 48 "NAN" 53.7 0.00
05/18 03:00 37.6 48 "NAN" 53.8 0.00
05/18 02:00 38.9 44 "NAN" 53.8 0.00
05/18 01:00 41.3 38 "NAN" 53.8 0.00
05/18 00:00 41.6 34 "NAN" 53.7 0.00
.